Location: Betzi
(47.2343°N, 9.5260°E)
Time: 22:03:43
(UTC+00:00)

NOSS 3-3 (A) - Pass Details

Date: 27 May 2022
Orbit: 779 x 1433 km, 63.4° (Epoch: 28 June)

Event Time Altitude Azimuth Distance (km) Brightness Sun altitude
Exits shadow 02:30:52 11° 216° (SW) 2,375 5.4 -9.1°
Maximum altitude 02:36:19 86° 128° (SE) 917 3.9 -8.4°
Drops below altitude 10° 02:42:51 10° 41° (NE) 2,820 8.2 -7.6°
Sets 02:45:40 0° 41° (NE) 3,879 9.6 -7.2°
